Date String (YYYY-MM-DD hh:mm:ss) UTC,Instrument flags,absolute air pressure of the measurement (hPa),sample flow rate (lpm),inlet stack bypass flow (lpm),air temperature of the measurement (°C),ambient temperature measured by the external sensor (°C),aerosol sample conditioner tube jacket temperature (°C),OPC LED temperature (°C),internal box temperature (°C),relative humidity of the measurement (%),span deviation,mass concentration of particles derived from Lorenz-Mie calculation of OPC scattering (μg/m³),mass concentration of particles derived from Lorenz-Mie calculation of OPC scattering (μg/m³),mass concentration of particles derived from Lorenz-Mie calculation of OPC scattering (μg/m³)
DateTimeUTC,F1_M11,P_M11,Q1_M11,Q2_M11,T1_M11,T2_M11,T3_M11,T4_M11,T5_M11,U1_M11,ZSPAN_M11,X0_M11,X2_M11,X1_M11
2023-07-07 11:00:00,SystemResetWarning,0831.5,5.01,000.00,030.3,028.9,000.0,038.9,031.8,24.5,0000.0,0009.18,0004.00,0003.46
2023-07-07 11:01:00,SystemResetWarning,0831.5,5.01,000.00,030.3,028.9,000.0,038.9,031.8,24.5,0000.0,0009.08,0004.01,0003.44
2023-07-07 11:02:00,SystemResetWarning,0831.5,4.99,000.00,030.3,028.9,000.0,038.9,031.8,24.3,0000.0,0009.73,0004.02,0003.43
2023-07-07 11:03:00,SystemResetWarning,0831.5,4.99,000.00,030.3,028.9,000.0,038.9,031.8,24.3,0000.0,0008.97,0004.03,0003.41
2023-07-07 11:04:00,SystemResetWarning,0831.5,4.99,000.00,030.3,028.9,000.0,038.9,031.8,24.4,0000.0,0008.97,0004.03,0003.41
2023-07-07 11:05:00,SystemResetWarning,0831.5,5.02,000.00,030.3,028.9,000.0,038.9,031.7,24.5,0000.0,0009.00,0004.01,0003.39
2023-07-07 11:06:00,SystemResetWarning,0831.5,5.00,000.00,030.3,028.9,000.0,038.9,031.8,24.5,0000.0,0008.92,0003.98,0003.38
2023-07-07 11:07:00,SystemResetWarning,0831.6,4.98,000.00,030.4,028.9,000.0,038.9,031.8,24.5,0000.0,0009.03,0003.95,0003.35
2023-07-07 11:08:00,SystemResetWarning,0831.6,5.01,000.00,030.4,029.0,000.0,038.9,031.8,24.4,0000.0,0009.79,0003.92,0003.33
2023-07-07 11:09:00,SystemResetWarning,0831.6,5.01,000.00,030.4,029.0,000.0,038.9,031.8,24.4,0000.0,0009.82,0003.87,0003.31
2023-07-07 11:10:00,SystemResetWarning,0831.6,5.00,000.00,030.4,029.0,000.0,038.9,031.8,24.4,0000.0,0009.37,0003.83,0003.29
2023-07-07 11:11:00,SystemResetWarning,0831.7,5.00,000.00,030.4,029.0,000.0,038.9,031.8,24.4,0000.0,0009.33,0003.83,0003.28
2023-07-07 11:12:00,SystemResetWarning,0831.7,5.00,000.00,030.4,029.0,000.0,038.9,031.9,24.4,0000.0,0009.50,0003.80,0003.28
2023-07-07 11:13:00,SystemResetWarning,0831.7,4.99,000.00,030.4,028.5,000.0,038.9,031.8,24.4,0000.0,0009.81,0003.76,0003.27
2023-07-07 11:14:00,SystemResetWarning,0831.7,5.00,000.00,030.3,026.4,000.0,038.7,031.6,24.4,0000.0,0009.55,0003.74,0003.28
2023-07-07 11:15:00,SystemResetWarning,0831.6,5.00,000.00,030.2,025.3,000.0,038.6,031.3,24.4,0000.0,0009.80,0003.74,0003.28
2023-07-07 11:16:00,SystemResetWarning,0831.7,5.01,000.00,030.0,025.3,000.0,038.6,030.9,24.7,0000.0,0009.86,0003.74,0003.27
2023-07-07 11:17:00,SystemResetWarning,0831.6,5.01,000.00,029.9,025.7,000.0,038.6,030.9,25.0,0000.0,0010.67,0003.73,0003.27
2023-07-07 11:18:00,SystemResetWarning,0831.6,4.99,000.00,029.8,026.1,000.0,038.6,030.9,25.0,0000.0,0010.63,0003.74,0003.28
2023-07-07 11:19:00,SystemResetWarning,0831.6,5.00,000.00,029.8,026.5,000.0,038.6,031.0,25.1,0000.0,0010.45,0003.76,0003.28
2023-07-07 11:20:00,SystemResetWarning,0831.6,5.00,000.00,029.8,026.9,000.0,038.6,031.1,25.1,0000.0,0010.08,0003.76,0003.29
2023-07-07 11:21:00,SystemResetWarning,0831.6,5.00,000.00,029.8,027.2,000.0,038.5,031.1,25.0,0000.0,0010.46,0003.76,0003.29
2023-07-07 11:22:00,SystemResetWarning,0831.6,5.00,000.00,029.8,027.4,000.0,038.5,031.2,25.0,0000.0,0010.53,0003.79,0003.29
2023-07-07 11:23:00,SystemResetWarning,0831.6,5.00,000.00,029.8,027.6,000.0,038.5,031.2,25.0,0000.0,0010.57,0003.82,0003.29
2023-07-07 11:24:00,SystemResetWarning,0831.6,5.00,000.00,029.8,027.8,000.0,038.5,031.2,25.1,0000.0,0009.79,0003.80,0003.28
2023-07-07 11:25:00,SystemResetWarning,0831.6,4.99,000.00,029.8,028.0,000.0,038.5,031.2,25.1,0000.0,0009.64,0003.81,0003.28
2023-07-07 11:26:00,SystemResetWarning,0831.6,5.00,000.00,029.8,028.1,000.0,038.5,031.3,25.1,0000.0,0009.87,0003.78,0003.27
2023-07-07 11:27:00,SystemResetWarning,0831.6,5.00,000.00,029.8,028.2,000.0,038.4,031.3,25.0,0000.0,0010.24,0003.80,0003.28
2023-07-07 11:28:00,SystemResetWarning,0831.7,5.00,000.00,029.8,028.2,000.0,038.4,031.3,25.0,0000.0,0009.68,0003.80,0003.28
2023-07-07 11:29:00,SystemResetWarning,0831.7,5.00,000.00,029.8,028.3,000.0,038.4,031.3,25.0,0000.0,0009.66,0003.81,0003.28
2023-07-07 11:30:00,SystemResetWarning,0831.7,5.00,000.00,029.9,028.4,000.0,038.4,031.3,25.0,0000.0,0009.54,0003.83,0003.28
2023-07-07 11:31:00,SystemResetWarning,0831.7,5.00,000.00,029.9,028.4,000.0,038.4,031.3,25.0,0000.0,0009.03,0003.86,0003.28
2023-07-07 11:32:00,SystemResetWarning,0831.7,5.01,000.00,029.9,028.4,000.0,038.4,031.4,24.9,0000.0,0008.70,0003.85,0003.28
2023-07-07 11:33:00,SystemResetWarning,0831.7,5.00,000.00,029.9,028.5,000.0,038.4,031.4,24.9,0000.0,0008.69,0003.83,0003.28
2023-07-07 11:34:00,SystemResetWarning,0831.7,5.01,000.00,029.9,028.5,000.0,038.4,031.4,24.9,0000.0,0008.52,0003.79,0003.29
2023-07-07 11:35:00,SystemResetWarning,0831.7,4.99,000.00,029.9,028.5,000.0,038.4,031.4,24.8,0000.0,0008.34,0003.80,0003.30
2023-07-07 11:36:00,SystemResetWarning,0831.7,4.99,000.00,030.0,028.5,000.0,038.4,031.4,24.8,0000.0,0008.35,0003.77,0003.28
2023-07-07 11:37:00,SystemResetWarning,0831.7,4.99,000.00,030.0,028.6,000.0,038.5,031.4,24.9,0000.0,0007.87,0003.79,0003.29
2023-07-07 11:38:00,SystemResetWarning,0831.7,5.00,000.00,030.0,028.6,000.0,038.5,031.5,24.9,0000.0,0007.40,0003.80,0003.29
2023-07-07 11:39:00,SystemResetWarning,0831.8,5.00,000.00,030.0,028.6,000.0,038.5,031.5,24.9,0000.0,0007.24,0003.81,0003.30
2023-07-07 11:40:00,SystemResetWarning,0832.0,5.01,000.00,030.0,028.6,000.0,038.5,031.5,24.8,0000.0,0007.22,0003.82,0003.30
2023-07-07 11:41:00,SystemResetWarning,0832.1,5.01,000.00,030.0,028.6,000.0,038.5,031.5,24.8,0000.0,0007.10,0003.80,0003.30
2023-07-07 11:42:00,SystemResetWarning,0831.8,5.00,000.00,030.0,028.6,000.0,038.5,031.5,24.9,0000.0,0007.31,0003.78,0003.30
2023-07-07 11:43:00,SystemResetWarning,0831.8,5.00,000.00,030.0,028.7,000.0,038.5,031.5,24.9,0000.0,0007.07,0003.77,0003.31
2023-07-07 11:44:00,SystemResetWarning,0831.9,4.99,000.00,030.1,028.7,000.0,038.5,031.5,25.0,0000.0,0006.96,0003.77,0003.30
2023-07-07 11:45:00,SystemResetWarning,0831.9,5.00,000.00,030.1,028.7,000.0,038.5,031.5,25.1,0000.0,0007.12,0003.82,0003.30
2023-07-07 11:46:00,SystemResetWarning,0831.9,5.01,000.00,030.1,028.7,000.0,038.5,031.5,25.0,0000.0,0007.30,0003.84,0003.29
2023-07-07 11:47:00,SystemResetWarning,0831.9,5.00,000.00,030.1,028.7,000.0,038.6,031.6,25.0,0000.0,0007.28,0003.88,0003.30
2023-07-07 11:48:00,SystemResetWarning,0831.9,5.00,000.00,030.1,028.7,000.0,038.6,031.6,25.1,0000.0,0007.22,0003.86,0003.29
2023-07-07 11:49:00,SystemResetWarning,0831.9,5.00,000.00,030.1,028.7,000.0,038.6,031.6,25.0,0000.0,0007.25,0003.84,0003.28
2023-07-07 11:50:00,SystemResetWarning,0831.9,5.00,000.00,030.1,028.7,000.0,038.6,031.6,24.9,0000.0,0007.31,0003.84,0003.28
2023-07-07 11:51:00,SystemResetWarning,0831.9,5.00,000.00,030.1,028.7,000.0,038.6,031.6,25.1,0000.0,0007.25,0003.85,0003.28
2023-07-07 11:52:00,SystemResetWarning,0831.9,5.01,000.00,030.1,028.7,000.0,038.6,031.6,25.3,0000.0,0007.14,0003.85,0003.28
2023-07-07 11:53:00,SystemResetWarning,0831.8,5.00,000.00,030.1,028.7,000.0,038.6,031.6,25.2,0000.0,0007.04,0003.84,0003.28
2023-07-07 11:54:00,SystemResetWarning,0831.8,5.00,000.00,030.1,028.7,000.0,038.6,031.6,25.1,0000.0,0007.24,0003.86,0003.28
2023-07-07 11:55:00,SystemResetWarning,0831.8,5.00,000.00,030.1,028.6,000.0,038.6,031.6,24.9,0000.0,0007.23,0003.87,0003.29
2023-07-07 11:56:00,SystemResetWarning,0831.8,4.99,000.00,030.1,028.6,000.0,038.6,031.6,25.0,0000.0,0007.07,0003.83,0003.30
2023-07-07 11:57:00,SystemResetWarning,0831.8,4.99,000.00,030.1,028.6,000.0,038.7,031.6,25.0,0000.0,0006.89,0003.83,0003.32
2023-07-07 11:58:00,SystemResetWarning,0831.9,5.00,000.00,030.1,028.6,000.0,038.7,031.6,24.9,0000.0,0006.82,0003.83,0003.33
2023-07-07 11:59:00,SystemResetWarning,0831.9,5.01,000.00,030.1,028.7,000.0,038.7,031.6,24.8,0000.0,0006.95,0003.84,0003.34
